Tracking 19245 objects as of 17-Aug-2018
HD Live streaming from Space Station
objects crossing your sky now

HELIOS 1A

Track HELIOS 1A now!
10-day predictions
HELIOS 1A is classified as:


NORAD ID: 23605
Int'l Code: 1995-033A
Perigee: 592.1 km
Apogee: 611.4 km
Inclination: 98.2 °
Period: 96.6 minutes
Semi major axis: 6972 km
RCS: Unknown
Launch date: July 7, 1995
Source: France (FR)
Launch site: FRENCH GUIANA (FRGUI)

Optical reconnaissance; cannot see through clouds or at night.
aabbcc
Your satellite tracking list
Your tracking list is empty




NASA's NSSDC Master Catalog

Two Line Element Set (TLE):
1 23605U 95033A   18222.87743443 0.00000120  00000-0  12117-4 0    03
2 23605  98.2005 292.5660 0013825 155.3792 204.6206 14.91056574    05
Source of the keplerian elements: McCants